Cortez, CO

1:14 AM MDT on April 25, 2017 (GMT -0600)
Cortez Municipal

Weather History for KCEZ - January, 2015

Change the Weather History Date:

Saturday, January 3, 2015

  Actual Average Record
Temperature  
Mean Temperature 14 °F 27 °F  
Max Temperature 32 °F 40 °F 50 °F (2014)
Min Temperature -4 °F 14 °F -10 °F (2013)
Degree Days  
Heating Degree Days 51 38  
Month to date heating degree days 155 114  
Since 1 July heating degree days 2434 2772  
Cooling Degree Days 0 0  
Month to date cooling degree days 0 0  
Year to date cooling degree days 0 0  
Moisture  
Dew Point 6 °F    
Average Humidity 78    
Maximum Humidity 92    
Minimum Humidity 63    
Precipitation  
Precipitation 0.00 in 0.04 in 0.21 in (2004)
Month to date precipitation 0.21 0.12  
Year to date precipitation 0.21 0.12  
Sea Level Pressure  
Sea Level Pressure 30.18 in    
Wind  
Wind Speed 8 mph (NNE)    
Max Wind Speed 24 mph    
Max Gust Speed 31 mph    
Visibility 10 miles    
Events      
T = Trace of Precipitation, MM = Missing Value Source: NWS Daily Summary

Daily Weather History Graph

Daily Weather History Graph

Search for Another Location

Airport or City:

Trip Planner

Search our weather history database for the weather conditions in past years. The results will help you decide how hot, cold, wet, or windy it might be!

Date:

Astronomy

Jan. 03, 2015 Rise Set
Actual Time 7:28 AM MST 5:09 PM MST
Civil Twilight 6:59 AM MST 5:38 PM MST
Nautical Twilight 6:27 AM MST 6:10 PM MST
Astronomical Twilight 5:55 AM MST 6:42 PM MST
Moon 4:18 PM MST (1/3) 5:55 AM MST (1/3)
Length of Visible Light 10h 38m
Length of Day
9h 40m
Waxing Gibbous, 98% of the Moon is Illuminated
Jan 3
Waxing Gibbous
Jan 4
Full
Jan 13
Last Quarter
Jan 20
New
Jan 26
First Quarter

Hourly Weather History & Observations

Time (MST) Temp. Windchill Dew Point Humidity Pressure Visibility Wind Dir Wind Speed Gust Speed Precip Events Conditions
12:53 AM -0.9 °F -8.9 °F -6.0 °F 79% 30.10 in 10.0 mi ENE 3.5 mph - N/A   Clear
1:48 AM -4.0 °F - -7.6 °F 85% 29.94 in 10.0 mi Calm Calm - N/A   Scattered Clouds
1:53 AM -2.0 °F - -6.0 °F 83% 30.13 in 10.0 mi Calm Calm - N/A   Scattered Clouds
2:00 AM -2.9 °F -13.3 °F -7.1 °F 82% 29.93 in 10.0 mi Variable 4.6 mph - N/A   Mostly Cloudy
2:22 AM -2.0 °F -15.4 °F -6.0 °F 83% 29.94 in 10.0 mi NE 6.9 mph - N/A   Scattered Clouds
2:53 AM -0.9 °F -11.0 °F -5.1 °F 83% 30.14 in 9.0 mi ENE 4.6 mph - N/A   Clear
3:53 AM -2.0 °F -12.2 °F -6.0 °F 83% 30.14 in 10.0 mi North 4.6 mph - N/A   Clear
4:53 AM -0.9 °F -16.4 °F -5.1 °F 83% 30.14 in 10.0 mi ENE 9.2 mph - N/A   Clear
5:53 AM 1.0 °F -14.9 °F -2.9 °F 83% 30.15 in 10.0 mi ENE 10.4 mph - N/A   Clear
6:53 AM -0.0 °F -14.2 °F -4.0 °F 83% 30.19 in 10.0 mi ENE 8.1 mph - N/A   Clear
7:53 AM 5.0 °F -5.6 °F 1.0 °F 84% 30.21 in 10.0 mi NE 5.8 mph - N/A   Mostly Cloudy
8:53 AM 16.0 °F 10.4 °F 12.0 °F 84% 30.18 in 10.0 mi NW 3.5 mph - N/A   Clear
9:53 AM 21.0 °F - 16.0 °F 81% 30.16 in 10.0 mi Calm Calm - N/A   Overcast
10:53 AM 26.1 °F 19.4 °F 17.1 °F 69% 30.14 in 10.0 mi WNW 5.8 mph - N/A   Clear
11:53 AM 21.9 °F 8.2 °F 16.0 °F 78% 30.16 in 10.0 mi West 16.1 mph - N/A   Clear
12:53 PM 27.0 °F 21.6 °F 19.0 °F 72% 30.13 in 10.0 mi West 4.6 mph - N/A   Clear
1:53 PM 27.0 °F 12.8 °F 18.0 °F 69% 30.13 in 10.0 mi WNW 21.9 mph 29.9 mph N/A   Partly Cloudy
2:53 PM 30.0 °F 18.3 °F 19.9 °F 66% 30.14 in 10.0 mi West 17.3 mph - N/A   Clear
3:53 PM 30.9 °F 21.2 °F 19.9 °F 64% 30.18 in 10.0 mi West 12.7 mph 21.9 mph N/A   Clear
4:53 PM 26.1 °F 16.2 °F 19.0 °F 75% 30.23 in 10.0 mi West 10.4 mph - N/A   Clear
5:53 PM 21.0 °F 16.2 °F 16.0 °F 81% 30.28 in 10.0 mi North 3.5 mph - N/A   Clear
6:53 PM 12.9 °F 6.9 °F 10.0 °F 88% 30.35 in 10.0 mi North 3.5 mph - N/A   Clear
7:53 PM 12.0 °F - 8.1 °F 84% 30.37 in 9.0 mi North - - N/A   Clear
8:53 PM 9.0 °F -0.9 °F 6.1 °F 88% 30.36 in 10.0 mi East 5.8 mph - N/A   Clear
9:53 PM 10.0 °F -0.9 °F 6.1 °F 84% 30.36 in 10.0 mi ENE 6.9 mph - N/A   Clear
10:53 PM 8.1 °F -5.3 °F 5.0 °F 87% 30.38 in 10.0 mi ENE 9.2 mph 19.6 mph N/A   Clear
11:53 PM 8.1 °F -2.0 °F 3.9 °F 83% 30.41 in 10.0 mi East 5.8 mph - N/A   Clear